Location: ?????????
(53.2086°N, 54.0693°E)
Time: 07:08:49
(UTC+00:00)

USA 229 DEB - Pass Details

Date: 08 December 2019
Orbit: 995 x 1217 km, 63.4° (Epoch: 16 January)

Event Time Altitude Azimuth Distance (km) Brightness Sun altitude
Rises 15:49:50 0° 311° (NW) 3,909 7.4 -32.0°
Reaches altitude 10° 15:52:27 10° 312° (NW) 2,981 6.6 -32.4°
Enters shadow 15:58:57 76° 328° (NNW) 1,189 3.8 -33.4°
